Temperature
19 19 19 18 18 18 18 18 18 17 17 17 17 17 16 16 16 16 16 16 16 16 16 16 16 15 15 15 15 15 15 15 15 14 14 14 14 14 14 13 13 13 13
20 19 19 18 18 18 18 18 17 17 17 17 16 16 16 16 16 16 16 16 16 16 15 15 15 15 15 15 15 15 15 15 15 14 13 13 13 13 13 13 13 13 12
20 19 19 18 18 18 18 17 17 17 16 16 16 16 16 16 16 16 15 15 15 15 15 15 15 15 15 15 15 14 14 14 14 14 13 13 13 12 13 12 12 12 12
19 19 18 18 18 18 17 17 17 16 16 16 16 16 16 16 15 15 15 15 15 15 14 14 14 14 14 14 14 14 14 14 14 13 13 13 12 12 12 12 12 11 11
19 19 18 18 18 17 17 17 16 16 16 16 16 16 15 15 15 15 15 15 14 14 14 14 14 14 14 14 14 14 14 13 13 13 12 12 12 12 12 11 11 11 11
19 18 18 18 17 17 17 16 16 15 15 15 15 15 15 15 15 15 14 14 14 14 14 13 13 13 13 13 13 13 13 13 13 12 12 12 12 12 11 11 11 11 10
18 18 18 17 17 16 16 16 16 15 15 15 15 15 15 15 15 14 14 14 14 13 13 13 12 13 13 13 13 13 13 12 12 12 12 11 11 11 11 11 11 10 10
18 18 17 17 17 16 16 16 15 15 15 15 15 15 15 15 14 14 14 13 13 13 13 13 13 13 12 12 12 12 12 12 12 12 12 11 11 11 11 11 11 10 10
18 18 17 17 17 16 16 16 15 15 14 14 15 14 14 14 14 13 13 13 13 12 12 12 12 12 12 12 12 12 12 11 11 11 11 11 11 11 11 11 10 10 10
18 17 17 17 16 16 16 16 15 15 14 14 14 14 14 14 13 13 13 12 12 12 12 12 12 12 12 12 12 11 11 11 11 11 11 11 11 10 10 10 10 10 10
18 17 17 17 16 16 16 15 15 14 14 14 14 14 14 13 13 13 13 12 12 12 12 12 12 12 12 11 11 11 11 11 11 11 11 10 10 10 10 10 10 10 10
17 17 17 16 16 15 15 15 14 14 14 13 13 13 13 13 13 13 12 12 12 12 12 11 11 11 11 11 11 11 11 11 11 11 11 10 10 10 10 10 10 10 10
17 17 16 16 15 15 15 15 14 14 13 13 13 13 12 13 12 12 12 12 12 12 11 11 11 11 11 11 11 11 11 11 11 11 10 10 10 10 10 10 10 9 9
17 16 16 15 15 15 15 14 14 14 13 13 13 12 12 12 12 12 11 11 11 11 11 11 11 11 11 11 11 11 11 11 10 10 10 10 10 10 10 9 9 9 9
17 16 16 15 15 15 15 14 14 14 13 13 13 13 12 12 12 12 11 11 11 11 11 11 11 11 11 11 11 11 10 10 10 10 10 10 10 10 10 9 9 9 9
16 16 15 15 15 15 14 14 14 13 13 13 13 13 12 12 12 11 11 11 11 11 11 11 11 11 11 11 11 10 10 10 10 10 10 10 10 10 10 9 9 9 9
16 15 15 14 14 14 14 14 14 13 13 13 12 12 12 12 12 11 11 11 11 11 11 11 11 11 11 11 11 10 10 10 10 10 10 10 10 10 9 9 9 9 9
16 15 15 14 14 14 14 14 13 13 13 12 12 12 12 12 11 11 11 11 11 11 11 11 11 11 10 10 10 10 10 10 9 9 9 9 9 9 9 9 9 9 9
15 14 14 14 14 14 13 13 13 13 12 12 12 12 12 11 11 11 11 11 11 11 11 11 11 11 10 10 10 10 10 9 9 9 9 9 9 9 9 9 9 9 9
14 14 14 14 14 14 13 13 13 12 12 12 12 12 11 11 11 11 11 11 10 11 11 11 10 10 10 10 10 9 9 9 9 9 9 9 9 9 9 9 9 9 9
14 14 14 14 14 14 13 13 13 13 12 12 12 12 12 11 11 11 11 11 11 11 11 10 10 10 10 9 9 9 9 9 9 9 8 8 8 8 8 8 8 8 8
14 14 14 14 14 14 13 13 13 13 12 12 12 12 12 11 11 11 11 11 11 10 10 10 10 10 10 9 9 9 9 9 9 8 8 8 8 8 8 8 8 8 8
14 14 14 14 14 14 13 13 13 13 13 12 12 12 11 11 11 11 11 11 10 10 10 10 10 10 9 9 9 9 9 8 8 8 8 8 8 8 8 8 8 8 7
14 14 14 14 14 14 13 13 13 13 13 12 12 12 11 11 11 11 11 11 10 10 10 10 10 9 9 9 9 9 9 8 8 8 8 8 7 7 7 7 7 7 7
14 14 14 14 14 13 13 13 13 13 13 12 12 12 11 11 11 11 11 11 10 10 10 10 9 9 9 9 8 8 8 8 8 8 8 7 7 7 7 7 7 7 7
14 14 14 14 13 13 13 13 13 12 12 12 12 12 11 11 11 11 10 10 10 10 10 9 9 9 9 8 8 8 8 8 8 7 7 7 7 7 6 6 6 6 6
Wind_Speed
5 4 3 3 3 3 2 3 3 3 3 4 3 3 4 4 4 4 4 4 4 4 4 4 3 3 3 2 2 1 1 2 3 2 3 3 4 5 6 7 9 10 10
6 5 5 4 4 4 4 4 4 4 3 4 4 4 4 4 4 5 5 5 5 5 5 5 5 4 4 3 3 3 2 2 4 4 3 3 3 4 4 5 7 9 10
8 7 5 5 5 5 4 5 4 4 4 4 4 4 5 5 5 5 5 5 5 6 6 6 7 6 5 4 4 4 3 4 4 4 3 3 3 3 4 5 6 7 9
8 8 6 6 5 5 5 5 4 5 5 5 5 5 5 6 6 5 5 5 6 6 7 7 7 7 6 5 5 5 4 4 4 4 4 3 3 3 3 3 5 4 5
8 8 7 6 6 6 6 5 5 5 6 6 6 6 6 6 6 6 4 6 5 5 6 7 8 10 11 8 6 5 5 5 4 4 5 4 4 3 2 2 4 4 4
8 8 7 7 6 6 6 6 6 6 6 6 7 7 8 7 9 10 7 5 5 5 5 5 6 8 10 11 12 11 9 7 5 5 5 4 3 3 2 2 3 3 2
8 8 8 7 7 6 7 7 7 6 6 7 7 7 7 8 10 10 8 4 6 6 6 5 6 7 7 6 8 9 10 10 8 5 5 4 3 2 2 2 2 3 2
9 8 8 8 8 7 7 7 6 5 6 6 6 6 6 7 10 9 7 5 7 7 7 7 7 7 7 6 6 7 7 7 7 6 5 4 4 2 1 2 2 4 3
9 8 8 8 8 7 7 6 5 5 6 6 6 6 5 6 9 9 7 4 6 7 7 7 7 7 9 8 5 5 5 5 8 9 8 7 7 8 6 3 2 2 2
9 8 8 7 7 7 7 6 5 5 5 6 6 5 5 5 7 10 7 3 5 6 6 7 10 8 9 8 5 4 4 3 3 4 4 4 4 5 7 4 3 2 2
9 9 8 7 7 7 7 6 6 5 5 5 6 5 5 5 6 9 9 4 3 4 5 5 4 7 8 8 6 4 3 2 1 2 3 3 3 3 5 6 5 3 3
9 9 9 8 7 7 7 6 5 6 6 5 5 5 4 4 5 6 8 8 6 5 5 5 4 4 5 5 4 5 6 4 1 1 3 3 3 3 3 4 4 4 3
9 9 8 7 6 7 7 6 5 5 5 5 5 5 5 4 3 4 6 7 8 5 4 4 3 1 1 1 1 3 4 2 2 2 3 3 2 2 2 2 3 3 4
10 8 7 7 7 6 5 5 4 3 3 3 3 4 5 5 3 2 3 4 4 4 3 3 3 3 3 3 2 1 0 1 2 2 2 2 1 2 2 2 1 1 2
9 8 8 7 6 5 4 3 2 3 1 1 2 3 4 4 3 3 2 2 2 2 1 2 3 2 2 2 1 1 1 1 1 2 2 1 1 1 2 1 1 1 1
9 9 8 7 7 6 6 5 10 7 7 9 8 6 5 7 8 7 6 5 5 4 1 2 1 1 1 1 1 2 2 2 2 2 2 2 1 1 1 1 1 0 0
8 8 7 7 7 7 7 6 5 4 7 9 9 9 9 8 7 6 4 3 2 1 1 2 1 0 1 1 1 2 2 2 1 2 1 1 2 1 1 1 0 0 0
8 8 7 6 7 7 7 7 6 6 5 3 4 6 8 7 5 4 2 1 1 2 3 2 1 1 1 1 2 2 2 2 1 1 2 2 2 2 2 1 1 1 1
8 7 6 6 6 6 7 7 6 7 6 6 6 4 4 5 3 2 2 2 3 3 3 2 1 1 2 2 1 1 1 1 1 1 1 2 2 2 2 2 1 1 1
6 7 7 6 7 7 7 7 7 7 6 6 7 7 6 5 4 5 5 5 4 3 2 1 1 2 1 1 1 0 0 1 1 1 1 1 2 2 2 2 2 1 1
7 7 8 7 7 7 7 7 6 6 6 6 6 7 9 7 6 6 6 5 4 3 1 1 1 2 2 2 1 0 0 0 1 1 1 2 2 2 3 2 2 2 2
7 8 7 7 6 6 6 5 6 6 7 6 6 7 10 7 5 5 5 4 4 3 2 1 2 1 1 1 1 0 1 0 0 1 2 2 2 2 2 2 2 2 2
6 7 7 6 5 6 6 6 6 6 6 7 7 7 7 7 5 4 4 4 3 3 3 2 1 0 2 2 2 1 0 0 1 1 2 2 3 3 2 2 3 3 3
7 7 7 7 6 6 7 6 6 7 6 6 6 6 6 5 4 4 3 3 3 4 4 4 3 2 2 2 2 2 2 2 2 3 3 3 3 3 3 3 3 4 3
6 7 7 7 7 6 6 6 6 6 6 6 6 6 6 6 5 4 4 3 3 3 4 5 4 4 4 4 4 4 3 3 2 2 3 4 4 4 4 4 4 4 4
7 7 6 6 6 5 5 5 6 6 5 6 5 5 5 5 5 4 4 3 3 3 3 4 4 4 4 5 5 6 5 3 1 1 3 4 4 4 4 4 5 5 5
Wind_Direction
140 131 115 116 113 110 108 90 79 67 69 67 58 58 58 47 44 49 53 51 51 41 31 34 24 13 8 3 1 31 85 118 123 90 71 82 81 87 95 94 90 88 82
139 129 118 107 98 94 86 82 79 74 73 73 67 63 63 56 51 51 52 50 49 45 39 37 26 27 22 22 21 37 60 97 116 113 98 87 73 94 105 101 97 93 88
138 132 127 115 104 96 90 84 78 73 68 67 66 63 58 58 58 58 62 59 58 52 46 44 36 33 30 29 38 39 47 75 92 106 99 89 78 81 93 90 91 92 92
143 140 129 119 116 110 100 87 80 79 74 69 68 67 64 58 52 54 68 67 66 62 58 55 46 40 31 26 47 41 54 69 85 96 95 86 71 67 82 93 95 83 81
141 137 131 125 120 110 99 90 81 82 84 75 73 69 65 57 40 34 61 73 67 66 69 72 67 62 54 50 59 49 52 64 76 83 84 78 69 73 60 76 90 95 78
142 139 132 129 123 116 112 104 92 83 80 76 73 67 61 55 31 34 45 63 62 62 63 71 80 68 64 65 68 64 59 67 69 76 76 80 75 72 69 93 100 92 85
142 141 140 137 129 124 115 103 97 95 89 81 78 78 72 47 33 32 31 66 71 64 60 53 59 60 58 60 69 71 62 61 66 78 83 73 79 74 87 91 85 95 100
144 142 140 135 129 122 116 111 107 103 96 89 84 86 81 50 32 28 20 85 80 70 63 60 62 51 44 44 71 74 69 59 61 73 76 71 65 54 84 117 127 116 103
146 141 137 134 131 130 124 120 118 113 109 104 97 92 84 51 26 22 17 99 92 82 74 61 60 56 31 41 70 81 86 83 75 85 92 91 80 67 61 69 74 113 120
148 142 136 137 140 138 134 131 127 124 121 114 105 98 91 68 34 27 17 92 108 106 96 79 61 52 38 42 60 64 70 66 81 99 100 94 94 82 68 56 45 67 99
143 140 137 140 140 138 135 135 140 136 123 115 114 108 94 79 62 43 35 43 79 99 101 92 65 47 42 37 41 51 41 4 8 116 121 113 97 82 75 65 50 50 64
142 143 142 146 150 144 141 142 143 140 139 141 139 132 116 96 70 63 54 51 58 81 89 96 96 68 45 29 32 10 357 356 10 79 86 85 87 84 85 89 81 71 87
147 147 147 149 142 145 151 152 156 166 168 167 164 152 138 126 105 87 81 73 73 81 89 109 119 124 349 313 314 337 349 358 20 66 77 84 103 123 130 128 127 114 93
149 148 150 151 147 146 153 162 165 178 178 168 159 148 138 138 134 129 135 131 125 123 132 161 191 231 265 288 284 267 126 25 32 56 71 87 115 118 116 114 124 150 139
154 155 157 157 153 137 118 71 100 67 63 139 138 134 148 142 122 99 100 93 99 97 168 208 198 194 204 205 185 124 92 79 29 27 37 38 59 86 101 90 62 26 60
162 167 169 166 160 154 139 103 52 65 77 80 77 91 97 114 126 101 82 67 59 54 43 242 213 217 189 147 126 118 97 59 17 20 29 23 19 37 70 98 103 91 55
173 177 176 173 171 169 163 157 142 91 68 72 83 95 114 129 121 109 88 43 15 54 271 265 250 187 44 67 80 85 92 85 8 346 9 2 352 359 20 28 30 331 310
180 181 178 177 178 177 177 175 169 167 159 136 100 112 129 136 136 133 117 57 247 220 237 245 242 159 108 51 58 60 77 90 51 356 21 2 352 348 352 346 0 7 336
186 183 183 179 181 181 179 178 179 175 167 157 150 148 158 154 163 185 171 225 241 237 219 213 211 115 91 89 78 62 59 91 58 335 9 340 336 324 322 322 333 13 307
187 180 181 183 185 183 182 182 177 173 173 169 170 168 171 183 195 198 208 224 234 235 222 175 128 107 103 87 109 166 277 117 114 324 346 320 318 316 309 309 316 305 269
184 180 185 194 194 187 188 186 179 180 183 181 177 170 173 194 205 202 198 204 217 221 196 156 168 171 160 172 191 221 291 81 76 4 329 319 317 312 303 302 305 317 322
185 181 187 196 193 188 189 186 182 184 189 183 171 173 182 207 216 198 198 195 194 194 179 201 234 182 129 159 140 93 310 322 29 348 324 315 310 311 317 323 333 331 324
194 188 191 196 190 175 183 191 190 190 189 185 181 177 187 208 215 199 190 186 175 177 176 174 225 186 133 130 130 127 219 31 12 17 329 319 316 311 314 317 312 309 311
200 192 194 194 195 188 189 191 190 191 189 184 180 179 188 199 203 196 189 188 177 172 173 178 185 171 152 158 155 119 91 86 47 7 349 318 308 310 314 310 303 306 307
206 197 198 199 199 194 188 190 190 188 186 184 185 184 185 186 193 198 193 186 171 179 180 180 188 192 175 159 147 133 118 105 79 360 321 306 301 303 303 306 308 306 302
213 207 202 198 195 189 186 189 187 186 190 192 188 185 185 184 190 196 193 181 176 180 176 170 159 151 148 148 141 139 144 144 148 305 308 300 296 297 304 301 301 299 295
Height
1543 1544 1545 1545 1545 1545 1545 1546 1546 1547 1547 1547 1547 1546 1546 1546 1546 1545 1545 1544 1544 1544 1543 1543 1543 1543 1543 1543 1543 1543 1543 1544 1544 1546 1546 1546 1546 1546 1546 1545 1545 1545 1544
1543 1544 1544 1545 1545 1545 1546 1546 1546 1546 1546 1546 1546 1546 1546 1546 1545 1545 1544 1544 1543 1543 1542 1542 1542 1541 1541 1541 1542 1542 1542 1543 1543 1544 1545 1545 1546 1546 1546 1545 1545 1545 1544
1543 1544 1544 1545 1545 1546 1546 1546 1546 1547 1547 1546 1546 1546 1546 1546 1545 1544 1544 1544 1543 1542 1542 1541 1541 1541 1541 1541 1541 1541 1542 1542 1543 1544 1544 1545 1546 1546 1546 1546 1546 1545 1545
1542 1543 1544 1545 1546 1546 1547 1547 1547 1547 1547 1546 1546 1546 1546 1546 1545 1545 1544 1544 1543 1543 1542 1542 1541 1541 1541 1541 1541 1541 1542 1542 1543 1544 1544 1545 1546 1546 1546 1546 1546 1546 1545
1542 1543 1544 1545 1546 1546 1547 1547 1547 1547 1547 1547 1547 1547 1546 1546 1545 1545 1545 1544 1543 1543 1543 1542 1542 1542 1542 1542 1542 1542 1542 1543 1543 1544 1545 1545 1545 1546 1546 1546 1546 1547 1546
1541 1543 1544 1545 1545 1546 1546 1547 1547 1548 1548 1547 1547 1547 1546 1546 1546 1546 1545 1545 1544 1544 1544 1543 1543 1542 1542 1542 1543 1543 1543 1544 1544 1544 1545 1545 1545 1546 1546 1546 1547 1546 1546
1540 1542 1543 1544 1545 1546 1547 1547 1547 1548 1548 1548 1548 1547 1547 1547 1547 1546 1546 1545 1545 1545 1545 1544 1544 1543 1543 1544 1543 1544 1544 1545 1545 1546 1545 1546 1546 1546 1546 1547 1547 1547 1547
1539 1541 1542 1544 1545 1545 1546 1546 1547 1548 1548 1548 1548 1548 1548 1547 1547 1547 1547 1546 1546 1546 1545 1545 1545 1545 1545 1545 1545 1545 1545 1546 1546 1547 1547 1547 1547 1547 1547 1548 1547 1547 1548
1538 1540 1541 1543 1544 1545 1546 1546 1547 1548 1548 1548 1548 1548 1548 1548 1547 1547 1547 1547 1547 1547 1547 1546 1546 1546 1546 1546 1546 1546 1547 1547 1548 1548 1548 1548 1548 1548 1548 1548 1547 1548 1548
1537 1539 1540 1542 1543 1545 1545 1546 1547 1548 1548 1549 1549 1549 1549 1548 1548 1548 1548 1548 1548 1548 1548 1547 1547 1547 1547 1548 1548 1548 1548 1549 1549 1549 1549 1549 1549 1548 1548 1548 1547 1547 1547
1537 1538 1540 1541 1543 1544 1545 1546 1547 1548 1548 1549 1549 1549 1549 1549 1549 1549 1549 1549 1549 1549 1549 1549 1549 1549 1549 1549 1549 1549 1550 1550 1550 1550 1550 1550 1550 1550 1549 1548 1548 1548 1548
1536 1537 1539 1540 1542 1543 1544 1545 1546 1547 1548 1549 1549 1549 1549 1549 1549 1549 1549 1550 1550 1550 1550 1550 1550 1550 1550 1551 1551 1551 1551 1551 1551 1552 1552 1551 1551 1550 1550 1549 1549 1549 1548
1534 1535 1537 1539 1540 1542 1543 1544 1546 1547 1548 1549 1549 1549 1549 1549 1550 1550 1550 1550 1550 1551 1551 1551 1552 1552 1552 1552 1552 1552 1552 1552 1552 1552 1552 1552 1552 1551 1551 1550 1550 1549 1549
1532 1534 1536 1538 1539 1540 1542 1543 1545 1546 1547 1548 1549 1549 1549 1549 1549 1550 1550 1550 1551 1551 1552 1552 1553 1553 1553 1553 1553 1554 1553 1553 1553 1553 1553 1553 1552 1552 1551 1551 1550 1550 1549
1530 1532 1534 1536 1537 1539 1540 1542 1543 1544 1546 1547 1547 1548 1548 1548 1548 1549 1549 1550 1550 1551 1552 1552 1553 1553 1553 1553 1554 1554 1554 1553 1554 1554 1553 1553 1553 1552 1552 1551 1550 1550 1550
1529 1531 1533 1534 1536 1537 1538 1540 1541 1543 1544 1545 1546 1546 1546 1547 1547 1548 1549 1549 1550 1551 1552 1552 1552 1553 1553 1554 1554 1554 1553 1553 1553 1554 1553 1553 1553 1552 1552 1551 1550 1550 1549
1527 1529 1531 1533 1534 1535 1536 1538 1539 1541 1542 1543 1544 1545 1545 1546 1547 1547 1548 1549 1550 1550 1551 1552 1552 1552 1553 1553 1553 1553 1553 1553 1553 1553 1553 1553 1552 1552 1551 1551 1550 1549 1549
1525 1528 1530 1531 1532 1533 1534 1536 1537 1538 1540 1540 1542 1543 1543 1544 1545 1546 1547 1548 1549 1549 1550 1551 1551 1552 1552 1552 1552 1552 1552 1552 1552 1552 1552 1552 1551 1551 1550 1550 1549 1548 1548
1523 1525 1527 1529 1530 1532 1533 1534 1535 1536 1538 1538 1539 1541 1542 1543 1544 1545 1546 1547 1547 1548 1549 1550 1550 1551 1551 1551 1551 1551 1551 1551 1551 1551 1551 1550 1550 1550 1549 1548 1548 1547 1547
1521 1523 1525 1527 1529 1530 1531 1532 1534 1535 1536 1537 1537 1539 1540 1541 1542 1543 1544 1545 1546 1547 1548 1548 1548 1549 1549 1550 1550 1550 1550 1550 1550 1550 1549 1549 1549 1548 1548 1547 1547 1546 1545
1519 1521 1523 1525 1527 1528 1529 1531 1532 1533 1534 1535 1536 1537 1538 1539 1540 1541 1542 1543 1544 1545 1546 1547 1547 1547 1547 1548 1548 1548 1548 1548 1548 1548 1547 1547 1547 1546 1546 1546 1545 1544 1543
1516 1518 1520 1522 1524 1525 1527 1528 1529 1530 1532 1533 1533 1535 1536 1537 1538 1540 1540 1541 1542 1543 1544 1544 1545 1545 1545 1546 1546 1546 1546 1546 1546 1545 1545 1545 1545 1544 1544 1543 1542 1542 1541
1514 1516 1517 1519 1521 1522 1524 1525 1526 1528 1529 1530 1531 1532 1533 1535 1536 1537 1538 1539 1540 1541 1541 1542 1542 1543 1543 1543 1544 1544 1543 1543 1543 1543 1543 1542 1542 1542 1542 1541 1540 1539 1539
1512 1513 1515 1516 1518 1519 1521 1522 1523 1525 1526 1527 1528 1529 1531 1532 1533 1535 1536 1537 1538 1539 1539 1539 1540 1540 1540 1541 1541 1541 1541 1541 1540 1540 1540 1540 1540 1539 1539 1538 1537 1537 1536
1509 1511 1512 1514 1515 1516 1518 1519 1520 1522 1523 1524 1525 1527 1528 1529 1531 1532 1533 1534 1535 1536 1536 1537 1537 1538 1538 1538 1538 1538 1538 1538 1538 1537 1537 1537 1536 1536 1536 1535 1534 1534 1533
1506 1508 1509 1511 1512 1513 1515 1516 1518 1519 1520 1521 1522 1524 1525 1526 1528 1529 1530 1531 1532 1533 1534 1534 1535 1535 1535 1535 1535 1535 1535 1534 1534 1534 1534 1533 1533 1533 1532 1532 1531 1530 1530